Regional Weather Roundup
Issued by NWS Bismarck, ND

Home | Current Version | Previous Version | Text Only | Print | Product List | Glossary On
Versions: 1 2 3 4 5 6 7 8 9 10 11 12 13 14 15 16 17 18 19 20 21 22 23 24 25 26 27 28 29 30 31 32 33 34 35 36 37 38 39 40 41 42 43 44 45 46 47 48 49 50
000
ASUS43 KBIS 300910
RWRBIS

NWR BROADCAST TEXT
NATIONAL WEATHER SERVICE BISMARCK ND
400 AM CDT TUE JUN 30 2015

NOTE: "FAIR" INDICATES FEW OR NO CLOUDS BELOW 12,000 FEET WITH NO
SIGNIFICANT WEATHER AND/OR OBSTRUCTIONS TO VISIBILITY.


CITY           SKY/WX    TMP DP  RH WIND       PRES   REMARKS
WILLISTON      CLOUDY    70  58  65 CALM      29.94F HAZE
MINOT          CLOUDY    65  61  87 NE6       29.95R
MINOT AFB      CLOUDY    66  66 100 E7        29.94S
BISMARCK       CLOUDY    69  65  86 E10       29.93F
DICKINSON      MOCLDY    68  59  73 NE9       29.94R
GARRISON         N/A     69  64  84 SE6       29.95S
HETTINGER ARPT CLOUDY    67  62  84 NE6       29.93F
JAMESTOWN      MOCLDY    63  59  87 E6        29.93F
BEACH          PTSUNNY   66  63  88 NE6       29.96S
CROSBY         CLOUDY    63  63 100 CALM      29.96F FOG
HARVEY         FAIR      63  63 100 E10       29.94F
HAZEN          CLOUDY    68  63  83 NE6       29.94S
LINTON         FAIR      66  66 100 SE9G18    29.92F
MANDAN         CLOUDY    68  64  88 E9        29.94S
OAKES            N/A     61  61 100 NE8       29.93F
STANLEY        CLOUDY    66  66 100 CALM      29.97F
$$

CITY           SKY/WX    TMP DP  RH WIND       PRES   REMARKS
GRAND FORKS    PTCLDY    56  55  97 NW3       29.93F FOG
GRAND FORKS AF PTCLDY    57  56  96 NW5       29.94F
DEVILS LAKE    MOCLDY    61  55  82 CALM      29.96S
FARGO          PTCLDY    60  57  89 CALM      29.92F FOG
CANDO          CLOUDY    59  59 100 E3        29.97F FOG
CAVALIER       FAIR      59  57  94 CALM      29.95F FOG
GRAFTON        FAIR      57  57 100 N5        29.95F
LANGDON        FOG       55  55 100 CALM      29.98F VSB<1/4
ROLLA          FOG       55  55 100 N3        29.99F VSB<1/4
WALHALLA       FAIR      59  59 100 MISG      29.97S
$$

CITY           SKY/WX    TMP DP  RH WIND       PRES   REMARKS
ABERDEEN       CLOUDY    65  62  90 NE3       29.94S
MOBRIDGE       LGT RAIN  70  65  84 SE6       29.94R
BUFFALO          N/A     68  57  68 W5        29.88F
RAPID CITY     MOCLDY    66  56  70 SW3       29.97F
SIDNEY         CLOUDY    70  57  64 CALM      29.93F
WOLF POINT     CLOUDY    68  52  56 E3        29.94F HAZE
GLENDIVE       CLOUDY    70  55  60 NE12      29.95F
MILES CITY     MOCLDY    74  59  59 NE10      29.91F
BAKER          CLOUDY    70  62  76 SE5       29.96F
$$

CITY           SKY/WX    TMP DP  RH WIND       PRES   REMARKS
BILLINGS       CLOUDY    70  58  65 SW13      30.01F
GREAT FALLS    MOCLDY    67  59  75 S10       29.99F
REGINA         LGT RAIN  63  59  88 SW5       29.97F SMOKE
ESTEVAN          N/A     63  61  94 NE8       29.96F SMOKE
$$




USA.gov is the U.S. government's official web portal to all federal, state and local government web resources and services.